| time (UTC) | temp C | wind direction | speed KPH | gust KPH | rain 1hr cm | rain 24hr cm | rain mn cm | humidity % | barometer mb |
| 20260504210952 | 24 | 133 | 3.2 | 9.7 | 0.00 | 0.00 | 0.00 | 34 | 1009.8 |
| 20260504210709 | 24 | 128 | 4.8 | 14.5 | 0.00 | 0.00 | 0.00 | 34 | 1009.9 |
| 20260504205941 | 24 | 219 | 4.8 | 14.5 | 0.00 | 0.00 | 0.00 | 34 | 1009.9 |
| 20260504205435 | 24 | 211 | 3.2 | 14.5 | 0.00 | 0.00 | 0.00 | 34 | 1009.8 |
| 20260504204928 | 24 | 217 | 3.2 | 14.5 | 0.00 | 0.00 | 0.00 | 33 | 1009.8 |
| 20260504204422 | 24 | 86 | 4.8 | 12.9 | 0.00 | 0.00 | 0.00 | 36 | 1009.9 |
| 20260504203916 | 23 | 188 | 4.8 | 12.9 | 0.00 | 0.00 | 0.00 | 33 | 1009.9 |
| 20260504203410 | 25 | 235 | 4.8 | 12.9 | 0.00 | 0.00 | 0.00 | 32 | 1010.0 |
| 20260504202904 | 25 | 281 | 3.2 | 9.7 | 0.00 | 0.00 | 0.00 | 32 | 1010.0 |
| 20260504202359 | 25 | 155 | 3.2 | 9.7 | 0.00 | 0.00 | 0.00 | 35 | 1010.0 |
| 20260504201851 | 26 | 321 | 3.2 | 14.5 | 0.00 | 0.00 | 0.00 | 32 | 1010.0 |
| 20260504201347 | 26 | 152 | 4.8 | 14.5 | 0.00 | 0.00 | 0.00 | 33 | 1009.9 |
| 20260504200841 | 26 | 230 | 4.8 | 14.5 | 0.00 | 0.00 | 0.00 | 30 | 1009.9 |
| 20260504200557 | 26 | 117 | 4.8 | 14.5 | 0.00 | 0.00 | 0.00 | 30 | 1009.8 |
| 20260504195828 | 26 | 171 | 4.8 | 14.5 | 0.00 | 0.00 | 0.00 | 31 | 1010.1 |
| 20260504195322 | 26 | 273 | 3.2 | 14.5 | 0.00 | 0.00 | 0.00 | 30 | 1010.0 |
| 20260504194816 | 26 | 146 | 3.2 | 14.5 | 0.00 | 0.00 | 0.00 | 29 | 1010.1 |
| 20260504194311 | 26 | 190 | 4.8 | 14.5 | 0.00 | 0.00 | 0.00 | 32 | 1010.2 |
| 20260504193804 | 25 | 288 | 4.8 | 14.5 | 0.00 | 0.00 | 0.00 | 31 | 1010.2 |
| 20260504193259 | 25 | 171 | 4.8 | 14.5 | 0.00 | 0.00 | 0.00 | 30 | 1010.3 |
| 20260504192752 | 25 | 169 | 4.8 | 17.7 | 0.00 | 0.00 | 0.00 | 29 | 1010.5 |
| 20260504192246 | 26 | 280 | 3.2 | 17.7 | 0.00 | 0.00 | 0.00 | 33 | 1010.4 |
| 20260504191741 | 26 | 345 | 3.2 | 9.7 | 0.00 | 0.00 | 0.00 | 29 | 1010.5 |
| 20260504191236 | 26 | 273 | 3.2 | 11.3 | 0.00 | 0.00 | 0.00 | 30 | 1010.6 |
| 20260504190951 | 26 | 273 | 3.2 | 16.1 | 0.00 | 0.00 | 0.00 | 29 | 1010.7 |
| 20260504190446 | 25 | 279 | 4.8 | 17.7 | 0.00 | 0.00 | 0.00 | 29 | 1010.8 |
| 20260504185934 | 26 | 19 | 4.8 | 17.7 | 0.00 | 0.00 | 0.00 | 29 | 1010.9 |
| 20260504185435 | 25 | 292 | 3.2 | 17.7 | 0.00 | 0.00 | 0.00 | 29 | 1011.0 |
| 20260504184704 | 25 | 175 | 4.8 | 17.7 | 0.00 | 0.00 | 0.00 | 29 | 1011.1 |
| 20260504184158 | 26 | 239 | 3.2 | 11.3 | 0.00 | 0.00 | 0.00 | 34 | 1011.1 |
| 20260504183652 | 25 | 295 | 4.8 | 20.9 | 0.00 | 0.00 | 0.00 | 31 | 1011.3 |
| 20260504183147 | 25 | 249 | 6.4 | 24.1 | 0.00 | 0.00 | 0.00 | 30 | 1011.4 |
| 20260504182640 | 25 | 289 | 6.4 | 14.5 | 0.00 | 0.00 | 0.00 | 29 | 1011.5 |
| 20260504182136 | 25 | 251 | 4.8 | 14.5 | 0.00 | 0.00 | 0.00 | 30 | 1011.7 |
| 20260504181629 | 25 | 145 | 4.8 | 12.9 | 0.00 | 0.00 | 0.00 | 30 | 1011.6 |
| 20260504181122 | 25 | 97 | 4.8 | 12.9 | 0.00 | 0.00 | 0.00 | 31 | 1011.7 |
| 20260504180616 | 25 | 252 | 4.8 | 11.3 | 0.00 | 0.00 | 0.00 | 30 | 1011.7 |
| 20260504180111 | 25 | 213 | 4.8 | 16.1 | 0.00 | 0.00 | 0.00 | 29 | 1011.7 |
| 20260504175606 | 24 | 318 | 4.8 | 17.7 | 0.00 | 0.00 | 0.00 | 32 | 1011.8 |
| 20260504175058 | 25 | 175 | 4.8 | 17.7 | 0.00 | 0.00 | 0.00 | 31 | 1011.8 |
| 20260504174552 | 25 | 129 | 4.8 | 14.5 | 0.00 | 0.00 | 0.00 | 30 | 1012.0 |
| 20260504174047 | 24 | 282 | 4.8 | 14.5 | 0.00 | 0.00 | 0.00 | 31 | 1012.1 |
| 20260504173540 | 25 | 242 | 4.8 | 12.9 | 0.00 | 0.00 | 0.00 | 34 | 1012.3 |
| 20260504173034 | 24 | 287 | 4.8 | 12.9 | 0.00 | 0.00 | 0.00 | 30 | 1012.3 |
| 20260504172529 | 23 | 277 | 4.8 | 12.9 | 0.00 | 0.00 | 0.00 | 32 | 1012.1 |
| 20260504172030 | 23 | 245 | 3.2 | 11.3 | 0.00 | 0.00 | 0.00 | 32 | 1012.3 |
| 20260504171753 | 23 | 37 | 4.8 | 12.9 | 0.00 | 0.00 | 0.00 | 33 | 1012.5 |
| 20260504171028 | 23 | 242 | 4.8 | 16.1 | 0.00 | 0.00 | 0.00 | 35 | 1012.4 |
| 20260504170529 | 24 | 336 | 3.2 | 17.7 | 0.00 | 0.00 | 0.00 | 32 | 1012.5 |
| 20260504151019 | 20 | 220 | 3.2 | 19.3 | 0.00 | 0.00 | 0.00 | 38 | 1014.0 |
| 20260504150520 | 19 | 259 | 3.2 | 9.7 | 0.00 | 0.00 | 0.00 | 40 | 1013.9 |
| 20260504141015 | 16 | 250 | 1.6 | 9.7 | 0.00 | 0.00 | 0.00 | 49 | 1014.2 |
| 20260504140512 | 15 | 26 | 3.2 | 9.7 | 0.00 | 0.00 | 0.00 | 51 | 1014.2 |
| 20260504130442 | 11 | 265 | 1.6 | 9.7 | 0.00 | 0.00 | 0.00 | 62 | 1014.7 |
| 20260504110353 | 9 | 242 | 0.0 | 3.2 | 0.00 | 0.00 | 0.00 | 67 | 1015.0 |
| 20260504100240 | 9 | 254 | 1.6 | 8.0 | 0.00 | 0.00 | 0.00 | 69 | 1014.8 |
| 20260504090129 | 9 | 238 | 0.0 | 1.6 | 0.00 | 0.00 | 0.00 | 68 | 1015.1 |
| 20260504081753 | 10 | 205 | 0.0 | 1.6 | 0.00 | 0.00 | 0.00 | 66 | 1015.3 |
| 20260504081250 | 10 | 239 | 0.0 | 0.0 | 0.00 | 0.00 | 0.00 | 66 | 1015.2 |
| 20260504080523 | 10 | 239 | 0.0 | 0.0 | 0.00 | 0.00 | 0.00 | 66 | 1015.2 |
| 20260504070411 | 10 | 147 | 0.0 | 1.6 | 0.00 | 0.00 | 0.00 | 63 | 1015.0 |
| 20260504070132 | 10 | 147 | 0.0 | 1.6 | 0.00 | 0.00 | 0.00 | 63 | 1015.0 |
| 20260504050341 | 9 | 117 | 0.0 | 0.0 | 0.00 | 0.00 | 0.00 | 69 | 1015.4 |
| 20260504045605 | 9 | 117 | 0.0 | 0.0 | 0.00 | 0.00 | 0.00 | 69 | 1015.4 |
| 20260504044836 | 8 | 117 | 0.0 | 0.0 | 0.00 | 0.00 | 0.00 | 69 | 1015.4 |
| 20260504044337 | 8 | 117 | 0.0 | 0.0 | 0.00 | 0.00 | 0.00 | 69 | 1015.4 |
| 20260504043835 | 8 | 117 | 0.0 | 0.0 | 0.00 | 0.00 | 0.00 | 69 | 1015.4 |
| 20260504043336 | 8 | 117 | 0.0 | 0.0 | 0.00 | 0.00 | 0.00 | 70 | 1015.3 |
| 20260504042835 | 8 | 117 | 0.0 | 0.0 | 0.00 | 0.00 | 0.00 | 69 | 1015.4 |
| 20260504042335 | 8 | 117 | 0.0 | 0.0 | 0.00 | 0.00 | 0.00 | 69 | 1015.3 |
| 20260504041833 | 8 | 117 | 0.0 | 0.0 | 0.00 | 0.00 | 0.00 | 69 | 1015.4 |
| 20260504041332 | 8 | 117 | 0.0 | 0.0 | 0.00 | 0.00 | 0.00 | 69 | 1015.2 |
| 20260504040834 | 8 | 117 | 0.0 | 0.0 | 0.00 | 0.00 | 0.00 | 68 | 1015.2 |
| 20260504040332 | 8 | 117 | 0.0 | 0.0 | 0.00 | 0.00 | 0.00 | 68 | 1015.3 |
| 20260504035832 | 8 | 117 | 0.0 | 0.0 | 0.00 | 0.00 | 0.00 | 67 | 1015.3 |
| 20260504035333 | 8 | 117 | 0.0 | 1.6 | 0.00 | 0.00 | 0.00 | 67 | 1015.3 |
| 20260504034831 | 8 | 117 | 0.0 | 1.6 | 0.00 | 0.00 | 0.00 | 67 | 1015.3 |
| 20260504034328 | 8 | 117 | 0.0 | 1.6 | 0.00 | 0.00 | 0.00 | 66 | 1015.5 |
| 20260504034054 | 8 | 117 | 0.0 | 0.0 | 0.00 | 0.00 | 0.00 | 66 | 1015.4 |
| 20260504033330 | 8 | 117 | 0.0 | 0.0 | 0.00 | 0.00 | 0.00 | 65 | 1015.4 |
| 20260504033043 | 8 | 117 | 0.0 | 0.0 | 0.00 | 0.00 | 0.00 | 65 | 1015.3 |
| 20260504032927 | 8 | 117 | 0.0 | 0.0 | 0.00 | 0.00 | 0.00 | 65 | 1015.4 |
| 20260504031829 | 8 | 117 | 0.0 | 0.0 | 0.00 | 0.00 | 0.00 | 65 | 1015.3 |
| 20260504031325 | 9 | 117 | 0.0 | 0.0 | 0.00 | 0.00 | 0.00 | 64 | 1015.4 |
| 20260504030824 | 9 | 117 | 0.0 | 0.0 | 0.00 | 0.00 | 0.00 | 63 | 1015.4 |
| 20260504030325 | 9 | 117 | 0.0 | 0.0 | 0.00 | 0.00 | 0.00 | 63 | 1015.3 |
| 20260504025824 | 9 | 117 | 0.0 | 0.0 | 0.00 | 0.00 | 0.00 | 63 | 1015.3 |
| 20260504025325 | 9 | 117 | 0.0 | 0.0 | 0.00 | 0.00 | 0.00 | 62 | 1015.3 |
| 20260504024825 | 9 | 117 | 0.0 | 0.0 | 0.00 | 0.00 | 0.00 | 61 | 1015.3 |
| 20260504024817 | 9 | 117 | 0.0 | 0.0 | 0.00 | 0.00 | 0.00 | 60 | 1015.3 |
| 20260504023824 | 9 | 117 | 0.0 | 0.0 | 0.00 | 0.00 | 0.00 | 60 | 1015.2 |
| 20260504023325 | 9 | 117 | 0.0 | 0.0 | 0.00 | 0.00 | 0.00 | 60 | 1015.3 |
| 20260504023049 | 10 | 117 | 0.0 | 0.0 | 0.00 | 0.00 | 0.00 | 60 | 1015.2 |
| 20260504022321 | 10 | 117 | 0.0 | 1.6 | 0.00 | 0.00 | 0.00 | 60 | 1015.2 |
| 20260504021821 | 10 | 117 | 0.0 | 1.6 | 0.00 | 0.00 | 0.00 | 60 | 1015.2 |
| 20260504021319 | 10 | 117 | 0.0 | 0.0 | 0.00 | 0.00 | 0.00 | 58 | 1015.2 |
| 20260504020821 | 10 | 117 | 0.0 | 0.0 | 0.00 | 0.00 | 0.00 | 58 | 1015.2 |
| 20260504020319 | 10 | 117 | 0.0 | 0.0 | 0.00 | 0.00 | 0.00 | 57 | 1015.2 |
| 20260504015820 | 10 | 117 | 0.0 | 0.0 | 0.00 | 0.00 | 0.00 | 56 | 1015.1 |
| 20260504015319 | 10 | 117 | 0.0 | 0.0 | 0.00 | 0.00 | 0.00 | 56 | 1015.0 |
| 20260504014821 | 10 | 117 | 0.0 | 0.0 | 0.00 | 0.00 | 0.00 | 56 | 1015.0 |
| 20260504014320 | 10 | 117 | 0.0 | 0.0 | 0.00 | 0.00 | 0.00 | 55 | 1015.1 |
| 20260504013818 | 11 | 117 | 0.0 | 0.0 | 0.00 | 0.00 | 0.00 | 55 | 1015.0 |
| 20260504013318 | 11 | 117 | 0.0 | 0.0 | 0.00 | 0.00 | 0.00 | 55 | 1015.0 |
| 20260504012819 | 11 | 117 | 0.0 | 0.0 | 0.00 | 0.00 | 0.00 | 54 | 1014.9 |
| 20260504012317 | 11 | 117 | 0.0 | 0.0 | 0.00 | 0.00 | 0.00 | 53 | 1014.8 |
| 20260504012047 | 11 | 117 | 0.0 | 0.0 | 0.00 | 0.00 | 0.00 | 53 | 1014.8 |
| 20260504011317 | 11 | 117 | 0.0 | 0.0 | 0.00 | 0.00 | 0.00 | 53 | 1014.7 |
| 20260504010815 | 12 | 117 | 0.0 | 0.0 | 0.00 | 0.00 | 0.00 | 52 | 1014.7 |
| 20260504010315 | 12 | 117 | 0.0 | 0.0 | 0.00 | 0.00 | 0.00 | 50 | 1014.6 |
| 20260504005809 | 12 | 117 | 0.0 | 0.0 | 0.00 | 0.00 | 0.00 | 49 | 1014.6 |
| 20260504005309 | 12 | 117 | 0.0 | 0.0 | 0.00 | 0.00 | 0.00 | 48 | 1014.5 |
| 20260504005038 | 12 | 117 | 0.0 | 0.0 | 0.00 | 0.00 | 0.00 | 48 | 1014.5 |
| 20260504004308 | 13 | 117 | 0.0 | 0.0 | 0.00 | 0.00 | 0.00 | 48 | 1014.5 |
| 20260504003807 | 13 | 117 | 0.0 | 0.0 | 0.00 | 0.00 | 0.00 | 47 | 1014.4 |
| 20260504003524 | 13 | 117 | 0.0 | 0.0 | 0.00 | 0.00 | 0.00 | 46 | 1014.4 |
| 20260504002801 | 13 | 117 | 0.0 | 0.0 | 0.00 | 0.00 | 0.00 | 46 | 1014.4 |
| 20260504002303 | 13 | 117 | 0.0 | 0.0 | 0.00 | 0.00 | 0.00 | 46 | 1014.4 |
| 20260504001755 | 14 | 117 | 0.0 | 0.0 | 0.00 | 0.00 | 0.00 | 45 | 1014.4 |
| 20260504001248 | 14 | 117 | 0.0 | 0.0 | 0.00 | 0.00 | 0.00 | 42 | 1014.5 |
| 20260504000742 | 15 | 117 | 0.0 | 0.0 | 0.00 | 0.00 | 0.00 | 41 | 1014.4 |
| 20260504000547 | 15 | 117 | 0.0 | 0.0 | 0.00 | 0.00 | 0.00 | 40 | 1014.4 |
| 20260504000457 | 15 | 117 | 0.0 | 0.0 | 0.00 | 0.00 | 0.00 | 40 | 1014.4 |
| 20260503235425 | 16 | 117 | 0.0 | 0.0 | 0.00 | 0.00 | 0.00 | 39 | 1014.2 |
| 20260503235312 | 15 | 117 | 0.0 | 0.0 | 0.00 | 0.00 | 0.00 | 40 | 1014.3 |
| 20260503234213 | 16 | 117 | 0.0 | 0.0 | 0.00 | 0.00 | 0.00 | 39 | 1014.1 |
| 20260503233926 | 16 | 117 | 0.0 | 1.6 | 0.00 | 0.00 | 0.00 | 38 | 1014.2 |
| 20260503233200 | 16 | 117 | 0.0 | 3.2 | 0.00 | 0.00 | 0.00 | 38 | 1014.2 |
| 20260503232653 | 16 | 117 | 0.0 | 3.2 | 0.00 | 0.00 | 0.00 | 38 | 1014.2 |
| 20260503232147 | 16 | 322 | 0.0 | 0.0 | 0.00 | 0.00 | 0.00 | 39 | 1014.1 |
| 20260503231640 | 16 | 322 | 0.0 | 1.6 | 0.00 | 0.00 | 0.00 | 39 | 1014.0 |
| 20260503231352 | 17 | 322 | 0.0 | 1.6 | 0.00 | 0.00 | 0.00 | 35 | 1014.0 |
| 20260503230628 | 17 | 258 | 0.0 | 1.6 | 0.00 | 0.00 | 0.00 | 35 | 1014.0 |
| 20260503230122 | 17 | 258 | 0.0 | 3.2 | 0.00 | 0.00 | 0.00 | 34 | 1014.0 |
| 20260503225615 | 17 | 252 | 0.0 | 3.2 | 0.00 | 0.00 | 0.00 | 33 | 1013.9 |
| 20260503225111 | 17 | 254 | 1.6 | 4.8 | 0.00 | 0.00 | 0.00 | 31 | 1014.0 |
| 20260503224603 | 16 | 228 | 1.6 | 8.0 | 0.00 | 0.00 | 0.00 | 29 | 1014.0 |
| 20260503224058 | 16 | 335 | 1.6 | 8.0 | 0.00 | 0.00 | 0.00 | 29 | 1014.1 |
| 20260503223814 | 17 | 38 | 1.6 | 6.4 | 0.00 | 0.00 | 0.00 | 29 | 1014.0 |
| 20260503223051 | 17 | 0 | 1.6 | 6.4 | 0.00 | 0.00 | 0.00 | 28 | 1014.1 |
| 20260503222541 | 17 | 24 | 1.6 | 9.7 | 0.00 | 0.00 | 0.00 | 29 | 1014.0 |
| 20260503222034 | 17 | 229 | 3.2 | 9.7 | 0.00 | 0.00 | 0.00 | 28 | 1014.1 |
| 20260503221753 | 17 | 205 | 3.2 | 8.0 | 0.00 | 0.00 | 0.00 | 29 | 1014.1 |
| 20260503221022 | 17 | 55 | 1.6 | 11.3 | 0.00 | 0.00 | 0.00 | 28 | 1014.1 |
| 20260503220516 | 17 | 256 | 1.6 | 11.3 | 0.00 | 0.00 | 0.00 | 28 | 1014.2 |
| 20260503220235 | 17 | 267 | 1.6 | 6.4 | 0.00 | 0.00 | 0.00 | 28 | 1014.2 |
| 20260503215505 | 17 | 346 | 3.2 | 11.3 | 0.00 | 0.00 | 0.00 | 30 | 1014.1 |
| 20260503215215 | 17 | 69 | 3.2 | 11.3 | 0.00 | 0.00 | 0.00 | 30 | 1014.2 |
| 20260503214452 | 17 | 145 | 3.2 | 9.7 | 0.00 | 0.00 | 0.00 | 29 | 1014.2 |
| 20260503213947 | 17 | 92 | 1.6 | 6.4 | 0.00 | 0.00 | 0.00 | 28 | 1014.2 |
| 20260503213443 | 17 | 244 | 3.2 | 6.4 | 0.00 | 0.00 | 0.00 | 29 | 1014.1 |
| 20260503212944 | 17 | 63 | 3.2 | 6.4 | 0.00 | 0.00 | 0.00 | 27 | 1014.2 |
| 20260503212444 | 17 | 346 | 3.2 | 8.0 | 0.00 | 0.00 | 0.00 | 29 | 1014.3 |
| 20260503211943 | 17 | 279 | 3.2 | 12.9 | 0.00 | 0.00 | 0.00 | 29 | 1014.2 |